FW0655 Weather Reports


time (UTC)temp
C
wind
direction
speed
KPH
gust
KPH
rain 1hr
cm
rain 24hr
cm
rain mn
cm
humidity
%
barometer
mb
20260509180016 11 215 4.8 12.9 0.03 0.84 0.84 91 1007.8
20260509174517 11 192 4.8 11.3 0.00 0.81 0.81 91 1007.8
20260509173018 11 194 4.8 19.3 0.00 0.81 0.81 92 1007.9
20260509171513 11 209 6.4 14.5 0.00 0.81 0.81 92 1007.8
20260509170014 10 213 8.0 14.5 0.00 0.81 0.81 92 1007.8
20260509164509 10 211 8.0 16.1 0.00 0.81 0.81 92 1007.8
20260509163007 10 193 4.8 12.9 0.00 0.81 0.81 93 1008.0
20260509161506 10 204 1.6 9.7 0.00 0.81 0.81 93 1008.1
20260509160003 10 198 3.2 12.9 0.03 0.81 0.81 93 1008.3
20260509154612 10 267 1.6 16.1 0.03 0.81 0.81 93 1008.3
20260509153103 10 208 6.4 9.7 0.05 0.81 0.81 93 1008.5
20260509151556 10 197 4.8 14.5 0.05 0.81 0.81 93 1008.6
20260509150054 10 186 1.6 9.7 0.05 0.79 0.79 93 1008.8
20260509144557 10 31 0.0 3.2 0.05 0.79 0.79 93 1009.0
20260509143051 10 31 0.0 4.8 0.05 0.76 0.76 93 1009.1
20260509141546 9 31 1.6 3.2 0.08 0.76 0.76 93 1009.1
20260509140051 9 31 1.6 4.8 0.05 0.71 0.71 93 1009.1
20260509134543 9 31 1.6 4.8 0.05 0.71 0.71 93 1009.0
20260509133041 9 31 3.2 8.0 0.10 0.71 0.71 93 1009.1
20260509131543 9 31 3.2 6.4 0.13 0.69 0.69 93 1009.2
20260509130035 8 31 1.6 4.8 0.18 0.69 0.69 93 1009.4
20260509124534 8 31 0.0 1.6 0.20 0.66 0.66 93 1009.4
20260509123034 8 31 0.0 3.2 0.20 0.61 0.61 93 1009.7
20260509121534 8 31 1.6 4.8 0.20 0.56 0.56 93 1009.7
20260509120036 8 31 0.0 3.2 0.18 0.51 0.51 93 1009.8
20260509114533 8 31 0.0 3.2 0.15 0.46 0.46 92 1009.8
20260509113024 8 31 0.0 3.2 0.15 0.41 0.41 92 1009.8
20260509111523 7 31 1.6 4.8 0.18 0.36 0.36 92 1009.8
20260509110022 7 30 0.0 6.4 0.23 0.33 0.33 92 1009.6
20260509104520 7 30 1.6 6.4 0.20 0.30 0.30 92 1009.6
20260509103017 7 30 0.0 1.6 0.15 0.25 0.25 92 1009.7
20260509101517 7 30 0.0 3.2 0.08 0.18 0.18 92 1009.8
20260509100016 7 30 0.0 3.2 0.00 0.10 0.10 91 1009.6
20260509094514 7 30 1.6 4.8 0.00 0.10 0.10 91 1009.7
20260509093014 7 30 0.0 3.2 0.00 0.10 0.10 91 1009.6
20260509091513 7 30 0.0 4.8 0.00 0.10 0.10 91 1009.6
20260509090014 6 30 0.0 6.4 0.00 0.10 0.10 91 1009.6
20260509084513 7 30 0.0 4.8 0.03 0.10 0.10 90 1009.6
20260509083012 6 30 1.6 6.4 0.03 0.10 0.10 90 1009.9
20260509081514 6 34 1.6 6.4 0.03 0.10 0.10 89 1010.1
20260509080008 6 34 3.2 4.8 0.03 0.10 0.10 88 1010.3
20260509074508 6 34 0.0 0.0 0.00 0.08 0.08 88 1010.6
20260509073016 6 34 0.0 0.0 0.00 0.08 0.08 88 1010.4
20260509071507 6 34 0.0 0.0 0.03 0.08 0.08 87 1010.3
20260509070005 6 34 0.0 1.6 0.05 0.08 0.08 86 1010.3
20260509064504 6 34 0.0 3.2 0.08 0.08 0.08 86 1010.4
20260509063002 6 34 0.0 3.2 0.08 0.08 0.08 85 1010.5
20260509061603 7 34 1.6 4.8 0.05 0.05 0.05 84 1010.7
20260509060106 7 34 0.0 3.2 0.03 0.03 0.03 83 1010.9
20260509054613 7 34 0.0 1.6 0.00 0.00 0.00 82 1011.1
20260509053103 7 34 0.0 3.2 0.00 0.00 0.00 81 1011.0
20260509051557 7 34 1.6 3.2 0.00 0.00 0.00 80 1011.0
20260509050058 7 30 0.0 3.2 0.00 0.00 0.00 80 1011.0
20260509044555 7 30 0.0 6.4 0.00 0.00 0.00 80 1011.1
20260509043054 7 188 0.0 3.2 0.00 0.00 0.00 80 1011.1
20260509041555 7 188 0.0 3.2 0.00 0.00 0.00 80 1011.3
20260509040111 6 188 1.6 3.2 0.00 0.00 0.00 78 1011.2
20260509034550 6 188 0.0 1.6 0.00 0.00 0.00 77 1011.4
20260509033047 6 188 1.6 3.2 0.00 0.00 0.00 76 1011.3
20260509031547 6 188 1.6 3.2 0.00 0.00 0.00 75 1011.2
20260509030048 7 188 0.0 3.2 0.00 0.00 0.00 74 1011.2
20260509024548 7 188 1.6 3.2 0.00 0.00 0.00 73 1011.3
20260509023046 7 188 0.0 3.2 0.00 0.00 0.00 71 1011.4
20260509021546 8 188 1.6 3.2 0.00 0.00 0.00 69 1011.2
20260509020044 8 188 0.0 1.6 0.00 0.00 0.00 67 1011.3
20260509014544 9 188 0.0 3.2 0.00 0.00 0.00 65 1011.2
20260509013047 10 188 1.6 4.8 0.00 0.00 0.00 63 1011.1
20260509011554 12 190 3.2 6.4 0.00 0.00 0.00 59 1010.8
20260509010045 11 187 0.0 4.8 0.00 0.00 0.00 62 1010.7
20260509004551 11 193 4.8 8.0 0.00 0.00 0.00 61 1010.5
20260509003040 11 192 4.8 9.7 0.00 0.00 0.00 57 1010.3
20260509001539 12 40 1.6 3.2 0.00 0.00 0.00 55 1010.1
20260509000039 14 40 0.0 1.6 0.00 0.00 0.00 51 1009.8
20260508234537 15 40 0.0 1.6 0.00 0.00 0.00 44 1009.8
20260508233036 13 40 1.6 6.4 0.00 0.00 0.00 46 1009.7
20260508231536 13 65 1.6 6.4 0.00 0.00 0.00 46 1009.5
20260508230036 12 32 3.2 8.0 0.00 0.00 0.00 47 1009.6
20260508224534 13 28 4.8 6.4 0.00 0.00 0.00 44 1009.5
20260508223041 13 211 0.0 4.8 0.00 0.00 0.00 48 1009.6
20260508221531 13 325 1.6 4.8 0.00 0.00 0.00 43 1009.6
20260508220033 13 230 3.2 8.0 0.00 0.00 0.00 44 1009.5
20260508214538 13 290 3.2 12.9 0.00 0.00 0.00 45 1009.6
20260508213034 13 170 4.8 11.3 0.00 0.00 0.00 44 1009.8
20260508211530 13 311 3.2 6.4 0.00 0.00 0.00 46 1009.8
20260508210026 13 244 1.6 6.4 0.00 0.00 0.00 45 1009.9
20260508204531 13 23 8.0 20.9 0.00 0.00 0.00 44 1010.0
20260508203023 12 20 1.6 12.9 0.00 0.00 0.00 48 1010.2
20260508201524 13 348 1.6 6.4 0.00 0.00 0.00 45 1010.3
20260508200021 12 292 8.0 17.7 0.00 0.00 0.00 45 1010.4
20260508194520 13 306 1.6 12.9 0.00 0.00 0.00 44 1010.6
20260508193018 13 296 11.3 17.7 0.00 0.00 0.00 44 1010.8
20260508191516 12 286 8.0 14.5 0.00 0.00 0.00 44 1010.8
20260508190019 12 194 3.2 20.9 0.00 0.00 0.00 48 1011.1
20260508184510 11 276 3.2 12.9 0.00 0.00 0.00 51 1011.6
20260508183011 11 317 3.2 14.5 0.00 0.00 0.00 52 1011.8
20260508181507 11 270 3.2 8.0 0.00 0.00 0.00 54 1012.1